Miscellaneous Local Product
Issued by NWS North Platte, NE

Home | Current Version | Previous Version | Text Only | Print | Product List | Glossary On
Versions: 1 2 3 4 5 6 7 8 9 10 11 12 13 14 15 16 17 18 19 20 21 22 23 24 25 26 27 28 29 30 31 32 33 34 35 36 37 38 39 40 41 42 43 44 45 46 47 48 49 50
000
AXUS43 KLBF 302210
MISLBF


WESTERN AND NORTH CENTRAL NEBRASKA HOURLY WEATHER ROUNDUP
NATIONAL WEATHER SERVICE NORTH PLATTE NE
500 PM CDT MON MAY 30 2016

NOTE: "FAIR" INDICATES FEW OR NO CLOUDS BELOW 12,000 FEET WITH NO
SIGNIFICANT WEATHER AND/OR OBSTRUCTIONS TO VISIBILITY.

NOTE: STATIONS NOT REPORTING VARIABLES SUCH AS SKY/WEATHER OR
PRESSURE ARE PROVIDED BY RAWS AND APRS NETWORKS AND ARE NOT UNDER
NATIONAL WEATHER SERVICE QUALITY CONTROL.

...OBSERVATIONS IN AND NEAR THE EASTERN PANHANDLE OF NEBRASKA...

CITY           SKY/WX    TMP DP  RH WIND       PRES   REMARKS
PINE RIDGE     CLOUDY    77  45  32 W16G25    29.84R
CHADRON        CLOUDY    79  46  31 NW15G30   29.86R
ALLIANCE       CLOUDY    73  46  38 SW22G29   29.90R
SIDNEY         LGT RAIN  57  48  72 NE13      29.96F
CRESCENT LAKE    N/A     70  51  50 SW16G25     N/A
BIG SPRINGS      N/A     83  52  34 S6          N/A
$$

...OBSERVATIONS IN NORTHERN NEBRASKA AND FAR SOUTHERN SOUTH DAKOTA...

CITY           SKY/WX    TMP DP  RH WIND       PRES   REMARKS
WINNER         FAIR      80  58  46 S10       29.76F
VALENTINE      CLOUDY    74  53  48 S9        29.80F
THEDFORD       SUNNY     82  52  35 S16G23    29.84F
AINSWORTH      SUNNY     81  51  34 S18G24    29.81F
O`NEILL        SUNNY     82  56  42 S14       29.83F
ORD            SUNNY     84  53  34 S16G22    29.82F
BROKEN BOW     SUNNY     82  55  39 S17G28    29.84F
BUTTE            N/A     82  59  45 SE14G25     N/A
CHAMBERS         N/A     86  58  38 S12         N/A
EWING            N/A     82  60  46 S8          N/A
$$

...OBSERVATIONS IN SOUTHWEST NEBRASKA AND FAR NORTHEAST COLORADO...

CITY           SKY/WX    TMP DP  RH WIND       PRES   REMARKS
HOLYOKE        FAIR      82  46  28 SE6       29.86F
IMPERIAL       SUNNY     82  54  37 S10       29.85F
OGALLALA       CLOUDY    77  53  43 S7        29.86F
NORTH PLATTE   SUNNY     81  58  45 S14       29.84F
MCCOOK         SUNNY     82  58  43 S15G22    29.83F
LEXINGTON      SUNNY     81  56  42 S17       29.85F
PAXTON           N/A     83  58  42 S14         N/A
STAPLETON        N/A     84  59  42 CALM        N/A
GOTHENBURG       N/A     81  50  33 S9          N/A
CALLAWAY         N/A     79  59  50 S20         N/A
$$

...OBSERVATIONS IN CENTRAL LINCOLN COUNTY AREA...

CITY           SKY/WX    TMP DP  RH WIND       PRES   REMARKS
N.P. AIRPORT   SUNNY     81  58  45 S14       29.84F
N.P. DOWNTOWN    N/A     84  58  40 S5G13       N/A
N.P. SOUTHEAST   N/A     82  58  44 S8          N/A
N.P. HILLCREST   N/A     82  58  43 S10G17      N/A
$$

...SOME OBSERVATIONS FROM AROUND THE REGION...

CITY           SKY/WX    TMP DP  RH WIND       PRES   REMARKS
DENVER         CLOUDY    68  38  33 N13G25    29.99R THUNDER
LARAMIE        CLOUDY    61  31  32 NW23G36   30.08F
CHEYENNE       LGT RAIN  58  50  75 CALM      30.03F
SCOTTSBLUFF    CLOUDY    67  45  45 S13       29.93F
RAPID CITY     CLOUDY    68  51  54 N23G31    29.85F
BISMARCK       CLOUDY    69  54  58 N23G29    29.80R
PIERRE         SUNNY     84  57  39 S17G25    29.70F
SIOUX FALLS    CLOUDY    80  57  45 S13       29.83F
OMAHA          TSTM      82  57  42 S18G28    29.86F
GRAND ISLAND   SUNNY     85  50  29 S18G25    29.85F
KANSAS CITY    CLOUDY    74  66  76 S15       29.97F
WICHITA        MOSUNNY   82  58  43 SE14G24   29.92F
OKLAHOMA CITY  PTSUNNY   82  64  54 S8        29.92F
DALLAS         PTSUNNY   84  62  47 CALM      29.92F
AMARILLO       SUNNY     80  60  50 SW17      29.96F
DODGE CITY     SUNNY     82  54  37 S17       29.90F
HAYS           SUNNY     82  55  39 S17G23    29.88F
GOODLAND       SUNNY     84  52  33 S21G28    29.86F
$$




USA.gov is the U.S. government's official web portal to all federal, state and local government web resources and services.